Location: Maccacari
(45.1333°N, 11.1333°E)
Time: 16:19:13
(UTC+00:00)

SR - Pass Details

Date: 20 June 2021
Orbit: 577 x 878 km, 66.7° (Epoch: 24 July)

Event Time Altitude Azimuth Distance (km) Brightness Sun altitude
Rises 02:00:03 0° 312° (NW) 3,239 ? -12.0°
Reaches altitude 10° 02:03:35 10° 289° (WNW) 2,237 ? -11.6°
Maximum altitude 02:06:13 14° 257° (WSW) 1,900 ? -11.4°
Enters shadow 02:07:22 13° 242° (WSW) 1,936 ? -11.2°
